Regional Weather Roundup
Issued by NWS State College, PA

Home | Current Version | Previous Version | Text Only | Print | Product List | Glossary On
Versions: 1 2 3 4 5 6 7 8 9 10 11 12 13 14 15 16 17 18 19 20 21 22 23 24 25 26 27 28 29 30 31 32 33 34 35 36 37 38 39 40 41 42 43 44 45 46 47 48 49 50
000
ASUS41 KCTP 060110
RWRCTP

REGIONAL WEATHER ROUNDUP
NATIONAL WEATHER SERVICE STATE COLLEGE PA
900 PM EDT THU MAY 05 2016

Note: "fair" indicates few or no clouds below 12,000 feet with no
significant weather and/or obstructions to visibility.

* = STATION THAT DOES NOT REPORT PRECIPITATION /E.G. RAIN...SNOW...ETC/
    THUNDER OR FOG.

PAZ002>004-007>009-013>016-020>023-029>032-060200-
WESTERN PENNSYLVANIA

CITY           SKY/WX    TMP DP  RH WIND       PRES   REMARKS
ERIE           CLEAR     52  43  71 NE5       29.80R
MEADVILLE      CLEAR     50  42  74 N7        29.78R
FRANKLIN*      CLEAR     52  43  71 N7        29.78R
NEW CASTLE     FAIR      55  44  66 N6        29.77R
BEAVER COUNTY  PTCLDY    54  46  76 NW7       29.75R
BUTLER*        CLEAR     54  45  71 N5        29.76R
PITTSBURGH INT PTCLDY    55  46  71 N13       29.73R
PITTSBURGH     CLOUDY    54  46  74 NW10      29.71R
INDIANA*       MOCLDY    57  43  58 E8        29.75R
LATROBE        MOCLDY    54  54 100 S7        29.72R
WASHINGTON CO* NOT AVBL
$$

PAZ004>006-010>012-017>019-024>028-033>037-041-042-045-046-049>053-060200-
CENTRAL PENNSYLVANIA

CITY           SKY/WX    TMP DP  RH WIND       PRES   REMARKS
BRADFORD       PTCLDY    50  38  63 N6        29.76R
DUBOIS         CLOUDY    53  39  59 N10       29.73R
CLEARFIELD     CLOUDY    53  41  63 NE7       29.73R
JOHNSTOWN      CLOUDY    51  37  58 NE12G21   29.70R
ALTOONA        CLOUDY    52  41  66 NE14      29.71R
STATE COLLEGE  CLOUDY    54  43  66 NE8       29.71S
WILLIAMSPORT   CLOUDY    57  43  59 NW3       29.70R
SELINSGROVE    CLOUDY    56  44  64 N12       29.69R
FT INDIANTOWN  CLOUDY    56  44  64 N7        29.66R
CAPITAL CITY   CLOUDY    58  43  57 N5        29.67R
HARRISBURG     LGT RAIN  57  44  62 N3        29.66R
YORK           LGT RAIN  54  47  77 N3        29.67R
$$

PAZ038>040-043-044-047-048-054-055-060>062-067>071-060200-
EASTERN PENNSYLVANIA

CITY           SKY/WX    TMP DP  RH WIND       PRES   REMARKS
SCRANTON       CLOUDY    54  43  66 NE12      29.69R
MOUNT POCONO   CLOUDY    48  41  76 N9        29.67R
ALLENTOWN      CLOUDY    56  44  64 NE7       29.66R
QUAKERTOWN*    CLOUDY    54  46  76 NE5       29.67R
READING        CLOUDY    57  45  64 CALM      29.65R
LANCASTER      CLOUDY    55  47  74 N5        29.66R
COATESVILLE    CLOUDY    54  50  87 MISG      29.67R
POTTSTOWN      CLOUDY    54  45  71 N3        29.67R
BLUE BELL      CLOUDY    54  45  71 CALM      29.65R
DOYLESTOWN     CLOUDY    53  44  71 VRB3      29.65R
WILLOW GROVE   NOT AVBL
NORTH PHILA    CLOUDY    57  46  66 NE5       29.67R
PHILADELPHIA   CLOUDY    57  44  62 NE8       29.66R
$$




USA.gov is the U.S. government's official web portal to all federal, state and local government web resources and services.